Stations météo

réclame
Mon MeteoGroup
K14A, Pays-Bas (6204): Température de l'air & dewpoint: 14.08.2018 19:00:00 - 20.08.2018 19:00:00 (CEST)K14A, Pays-Bas (6204): Vitesse du vent & gusts: 14.08.2018 19:00:00 - 20.08.2018 19:00:00 (CEST)K14A, Pays-Bas (6204): Direction du vent: 14.08.2018 19:00:00 - 20.08.2018 19:00:00 (CEST)K14A, Pays-Bas (6204): reduced air pressure: 14.08.2018 19:00:00 - 20.08.2018 19:00:00 (CEST)K14A, Pays-Bas (6204): visibility: 14.08.2018 19:00:00 - 20.08.2018 19:00:00 (CEST)
Date & Time tt [°C] td [°C] ff [km/h] ff [knt] fx [km/h] fx [knt] dd ppp [hPa] vv [km]
20.08.2018 19:00:00 18,0 16,2 13 7 14 8 SW 1020,6 10
20.08.2018 18:00:00 18,1 16,1 15 8 22 12 SW 1020,6 10
20.08.2018 17:00:00 18,2 16,1 18 10 22 12 WSW 1020,7 10
20.08.2018 16:00:00 18,0 16,0 21 11 25 14 WSW 1020,6 10
20.08.2018 15:00:00 18,2 15,4 21 11 25 14 WSW 1020,7 10
20.08.2018 14:00:00 17,5 15,4 16 9 22 12 WSW 1020,6 10
20.08.2018 13:00:00 17,9 14,9 16 9 22 12 W 1020,6 10
20.08.2018 12:00:00 17,2 15,3 13 7 18 10 - 1020,4 10
20.08.2018 11:00:00 17,1 15,5 15 8 25 14 W 1020,2 10
20.08.2018 10:00:00 16,8 15,9 22 12 29 16 WNW 1019,9 10
20.08.2018 09:00:00 16,6 16,3 22 12 29 16 WNW 1019,4 4,9
20.08.2018 08:00:00 17,5 16,2 16 9 25 14 WNW 1018,5 10
20.08.2018 07:00:00 17,7 16,5 16 9 25 14 - 1018,2 10
20.08.2018 06:00:00 18,2 15,3 26 14 29 16 NW 1018,0 10
20.08.2018 05:00:00 17,1 16,2 9 5 29 16 - 1017,5 10
20.08.2018 04:00:00 17,0 16,0 24 13 29 16 WNW 1017,6 10
20.08.2018 03:00:00 17,2 16,4 22 12 36 19 - 1017,5 10
20.08.2018 02:00:00 17,7 16,4 34 18 36 19 W 1017,3 10
20.08.2018 01:00:00 18,9 16,5 35 19 32 18 W 1016,9 10
20.08.2018 00:00:00 19,3 16,3 29 16 36 19 W 1017,1 10
19.08.2018 23:00:00 19,6 16,4 37 20 40 21 W 1017,0 10
19.08.2018 22:00:00 18,7 17,6 42 23 43 23 SW 1016,3 10
19.08.2018 21:00:00 18,7 17,6 42 23 43 23 SW 1016,1 10
19.08.2018 20:00:00 18,5 17,6 41 22 40 21 SW 1016,0 9
19.08.2018 19:00:00 18,1 17,3 37 20 43 23 SW 1016,2 6
19.08.2018 18:00:00 18,7 16,7 37 20 47 25 SW 1016,5 10
19.08.2018 17:00:00 18,9 16,5 46 25 50 27 SW 1016,0 10
19.08.2018 16:00:00 18,7 16,5 44 24 47 25 SSW 1016,0 10
19.08.2018 15:00:00 18,6 16,7 48 26 50 27 SSW 1016,1 10
19.08.2018 14:00:00 18,2 16,6 54 29 54 29 SSW 1016,2 10
19.08.2018 13:00:00 18,4 15,9 52 28 58 31 SSW 1016,4 10
19.08.2018 12:00:00 18,7 16,3 52 28 58 31 SSW 1016,6 10
19.08.2018 11:00:00 18,8 17,0 44 24 47 25 SSW 1017,1 10
19.08.2018 10:00:00 18,7 17,2 41 22 43 23 SSW 1017,2 10
19.08.2018 09:00:00 18,7 17,1 37 20 36 19 SSW 1017,8 10
19.08.2018 08:00:00 18,6 17,0 29 16 32 18 SW 1018,1 18
19.08.2018 07:00:00 18,6 17,1 35 19 32 18 SW 1018,2 10
19.08.2018 06:00:00 18,6 17,2 37 20 36 19 SSW 1018,1 10
19.08.2018 05:00:00 18,5 17,1 39 21 40 21 SW 1018,5 10
19.08.2018 04:00:00 18,5 17,0 42 23 43 23 SSW 1018,9 10
19.08.2018 03:00:00 18,5 17,1 31 17 32 18 SSW 1019,2 10
19.08.2018 02:00:00 18,6 16,5 37 20 36 19 SSW 1019,7 10
19.08.2018 01:00:00 18,5 16,8 37 20 36 19 SSW 1019,8 10
19.08.2018 00:00:00 18,4 16,9 39 21 40 21 SSW 1020,0 10
18.08.2018 23:00:00 18,5 16,9 39 21 40 21 SSW 1020,1 10
18.08.2018 22:00:00 18,5 16,5 41 22 40 21 SSW 1020,2 10
18.08.2018 21:00:00 18,6 16,4 39 21 40 21 SSW 1019,7 10
18.08.2018 20:00:00 18,9 16,1 37 20 36 19 SSW 1019,4 10
18.08.2018 19:00:00 18,8 15,9 37 20 36 19 SSW 1019,4 10
18.08.2018 18:00:00 18,7 15,8 37 20 36 19 SSW 1019,7 10
18.08.2018 17:00:00 18,5 15,6 35 19 36 19 SW 1019,7 10
18.08.2018 16:00:00 18,4 15,2 35 19 36 19 SW 1019,7 10
18.08.2018 15:00:00 18,3 14,6 35 19 36 19 SW 1019,8 10
18.08.2018 14:00:00 18,0 14,1 39 21 40 21 SW 1019,9 10
18.08.2018 13:00:00 17,6 13,1 41 22 43 23 SW 1019,7 10
18.08.2018 12:00:00 17,4 13,2 42 23 43 23 SW 1019,6 10
18.08.2018 11:00:00 17,4 13,9 44 24 43 23 SW 1019,5 10
18.08.2018 10:00:00 17,2 13,7 44 24 43 23 SW 1019,5 10
18.08.2018 09:00:00 17,2 13,6 39 21 40 21 SW 1019,3 10
18.08.2018 08:00:00 17,3 13,5 37 20 36 19 SW 1019,1 10
18.08.2018 07:00:00 17,4 13,5 35 19 36 19 WSW 1018,7 10
18.08.2018 06:00:00 17,6 13,4 37 20 36 19 WSW 1018,6 10
18.08.2018 05:00:00 18,1 13,5 31 17 32 18 WSW 1018,7 10
18.08.2018 04:00:00 18,2 14,9 26 14 32 18 SW 1018,7 10
18.08.2018 03:00:00 18,4 14,4 31 17 40 21 SW 1018,6 10
18.08.2018 02:00:00 18,3 15,5 39 21 40 21 SSW 1019,0 10
18.08.2018 01:00:00 18,3 15,4 34 18 32 18 SSW 1019,0 10
18.08.2018 00:00:00 18,4 14,5 28 15 25 14 SSW 1019,1 10
17.08.2018 23:00:00 18,2 15,2 26 14 29 16 SSW 1019,0 10
17.08.2018 22:00:00 18,1 15,0 29 16 29 16 SSW 1019,3 10
17.08.2018 21:00:00 18,3 14,5 26 14 25 14 S 1019,0 10
17.08.2018 20:00:00 18,5 13,2 21 11 22 12 S 1019,0 10
17.08.2018 19:00:00 18,7 12,6 16 9 18 10 SSW 1019,0 10
17.08.2018 18:00:00 17,9 11,4 16 9 22 12 SW 1019,1 10
17.08.2018 17:00:00 17,7 11,6 22 12 29 16 W 1019,4 10
17.08.2018 16:00:00 17,4 11,3 29 16 32 18 W 1019,7 10
17.08.2018 15:00:00 17,1 12,3 31 17 32 18 WSW 1019,5 10
17.08.2018 14:00:00 17,2 12,3 29 16 29 16 WSW 1019,4 10
17.08.2018 13:00:00 17,2 11,5 26 14 29 16 W 1019,0 10
17.08.2018 12:00:00 17,2 11,7 26 14 32 18 W 1018,8 10
17.08.2018 11:00:00 17,2 11,6 18 10 29 16 WNW 1018,8 10
17.08.2018 10:00:00 17,0 11,6 11 6 25 14 - 1018,3 10
17.08.2018 09:00:00 17,1 10,6 11 6 25 14 - 1017,8 10
17.08.2018 08:00:00 17,1 10,8 11 6 22 12 W 1017,4 10
17.08.2018 07:00:00 17,2 10,3 15 8 25 14 - 1016,9 10
17.08.2018 06:00:00 17,3 10,3 11 6 29 16 - 1016,3 10
17.08.2018 05:00:00 17,7 11,3 16 9 32 18 W 1016,1 10
17.08.2018 04:00:00 17,9 12,0 21 11 32 18 - 1015,8 10
17.08.2018 03:00:00 17,8 14,3 34 18 32 18 W 1015,5 10
17.08.2018 02:00:00 17,6 14,6 26 14 29 16 WSW 1015,4 10
17.08.2018 01:00:00 17,3 14,3 28 15 29 16 WSW 1015,2 10
17.08.2018 00:00:00 17,4 13,7 29 16 32 18 W 1015,0 10
16.08.2018 23:00:00 17,6 13,3 35 19 36 19 W 1014,5 10
16.08.2018 22:00:00 17,3 14,3 28 15 32 18 WSW 1014,2 10
16.08.2018 21:00:00 17,5 14,1 34 18 36 19 SW 1014,0 10
16.08.2018 20:00:00 17,4 14,8 35 19 36 19 SSW 1013,4 10
16.08.2018 19:00:00 17,1 15,1 37 20 40 21 SSW 1013,1 10
16.08.2018 18:00:00 17,4 14,7 41 22 43 23 S 1013,0 10
16.08.2018 17:00:00 17,4 14,2 37 20 43 23 SSW 1013,1 10
16.08.2018 16:00:00 16,8 14,3 28 15 40 21 SSW 1013,0 10
16.08.2018 15:00:00 18,1 12,4 26 14 47 25 WSW 1014,0 10
16.08.2018 14:00:00 17,5 14,4 22 12 47 25 WSW 1013,3 10
16.08.2018 13:00:00 17,3 16,3 39 21 50 27 SSW 1012,9 10
16.08.2018 12:00:00 18,3 16,5 52 28 54 29 SW 1012,1 10
16.08.2018 11:00:00 18,5 16,6 50 27 50 27 SSW 1012,0 10
16.08.2018 10:00:00 18,5 16,7 46 25 47 25 SSW 1012,2 10
16.08.2018 09:00:00 18,6 16,1 44 24 47 25 SSW 1012,2 10
16.08.2018 08:00:00 18,3 16,1 42 23 43 23 SSW 1012,2 10
16.08.2018 07:00:00 18,3 16,9 42 23 43 23 SSW 1012,5 10
16.08.2018 06:00:00 18,3 16,8 42 23 40 21 SSW 1012,9 10
16.08.2018 05:00:00 18,4 16,8 39 21 40 21 SSW 1012,9 10
16.08.2018 04:00:00 18,6 17,2 39 21 47 25 SSW 1013,3 10
16.08.2018 03:00:00 18,8 16,9 46 25 47 25 SSW 1013,4 10
16.08.2018 02:00:00 18,8 16,7 42 23 47 25 SSW 1014,1 10
16.08.2018 01:00:00 18,6 17,0 46 25 47 25 SSW 1014,6 10
16.08.2018 00:00:00 18,7 16,8 48 26 50 27 SSW 1014,9 10
15.08.2018 23:00:00 18,8 16,9 50 27 50 27 S 1015,2 10
15.08.2018 22:00:00 18,9 16,8 50 27 50 27 S 1015,3 10
15.08.2018 21:00:00 18,9 16,7 48 26 50 27 S 1015,3 10
15.08.2018 20:00:00 19,0 16,5 46 25 47 25 S 1015,4 10
15.08.2018 19:00:00 19,0 16,1 44 24 43 23 S 1015,8 10
15.08.2018 18:00:00 18,9 16,2 39 21 40 21 SSW 1016,3 10
15.08.2018 17:00:00 18,8 15,8 37 20 40 21 SSW 1016,5 10
15.08.2018 16:00:00 18,5 15,2 35 19 36 19 SSW 1016,6 10
15.08.2018 15:00:00 18,2 15,4 34 18 32 18 SSW 1016,9 10
15.08.2018 14:00:00 18,1 16,3 28 15 29 16 SSW 1016,8 10
15.08.2018 13:00:00 18,3 16,2 24 13 25 14 SSW 1016,8 10
15.08.2018 12:00:00 18,3 16,2 26 14 29 16 SW 1016,8 10
15.08.2018 11:00:00 18,2 16,3 24 13 25 14 SW 1016,8 10
15.08.2018 10:00:00 18,1 16,8 21 11 22 12 WSW 1016,7 10
15.08.2018 09:00:00 18,2 16,9 21 11 22 12 WSW 1016,3 10
15.08.2018 08:00:00 18,2 17,2 22 12 22 12 WSW 1016,4 10
15.08.2018 07:00:00 18,8 16,7 28 15 29 16 W 1015,9 10
15.08.2018 06:00:00 18,3 17,1 28 15 29 16 W 1015,7 10
15.08.2018 05:00:00 18,5 17,0 29 16 32 18 W 1015,8 10
15.08.2018 04:00:00 18,6 17,0 31 17 29 16 WSW 1015,8 10
15.08.2018 03:00:00 18,5 16,7 29 16 29 16 SW 1015,8 10
15.08.2018 02:00:00 18,6 16,2 29 16 29 16 SSW 1015,9 10
15.08.2018 01:00:00 18,5 16,2 29 16 32 18 SW 1016,2 10
15.08.2018 00:00:00 18,7 16,1 34 18 32 18 WSW 1016,2 10
14.08.2018 23:00:00 18,3 16,2 31 17 29 16 SW 1016,3 10
14.08.2018 22:00:00 18,2 15,3 29 16 29 16 SSW 1016,2 10
14.08.2018 21:00:00 17,7 15,8 28 15 25 14 SW 1015,9 10
14.08.2018 20:00:00 17,7 15,7 28 15 25 14 WSW 1015,7 10
14.08.2018 19:00:00 17,7 15,7 24 13 25 14 WSW 1015,7 10

tt = Température de l'air
td = dewpoint
ff = Vitesse du vent
fx = gusts
dd = Direction du vent
ppp = reduced air pressure
vv = visibility

stations d'obs. à proximité